Location: Carson
(33.8314°N, 118.2820°W)
Time: 13:37:30
(UTC+00:00)

Cosmos 1943 - Pass Details

Date: 23 November 2020
Orbit: 832 x 851 km, 71.0° (Epoch: 21 January)

Event Time Altitude Azimuth Distance (km) Brightness Sun altitude
Exits shadow 13:29:03 - 341° (NNW) 3,469 6.1 -13.4°
Rises 13:29:11 0° 341° (NNW) 3,420 6.0 -13.3°
Reaches altitude 10° 13:31:39 10° 344° (NNW) 2,481 5.3 -12.8°
Maximum altitude 13:37:21 72° 68° (ENE) 895 3.5 -11.7°
Drops below altitude 10° 13:43:00 10° 153° (SSE) 2,466 6.3 -10.6°
Sets 13:45:27 0° 155° (SSE) 3,397 7.0 -10.1°
